Wetbulb
49.50 48.72 48.61 48.61 48.44 47.58 47.85 48.48 49.12 48.01 47.93 47.46 47.49 47.95 47.53 47.37 47.60 48.24 48.71 49.02 48.19 48.64
52.28 51.60 50.56 49.51 48.99 48.78 48.48 48.09 47.63 47.77 47.29 47.08 46.63 46.31 46.70 46.66 46.29 46.85 47.81 48.10 47.86 46.19
51.68 51.70 51.91 51.93 51.37 50.59 49.39 48.06 47.59 47.19 47.06 46.88 46.44 46.17 46.39 46.32 45.76 45.50 45.59 45.82 45.12 43.11
51.57 51.71 52.11 51.50 51.31 50.04 49.73 49.71 48.14 47.97 47.08 45.64 44.72 44.70 44.83 45.51 44.88 43.93 43.93 42.31 41.79 39.80
50.72 51.66 50.73 50.77 50.76 51.19 50.48 50.40 49.06 47.72 46.23 45.70 44.89 44.31 43.39 43.06 43.22 42.97 40.90 39.55 38.66 37.10
47.44 48.91 49.84 50.20 50.51 50.56 50.64 50.52 49.41 48.79 47.43 47.15 46.14 44.53 43.53 42.95 41.02 41.62 40.88 38.42 37.58 36.71
45.23 46.12 47.60 50.26 50.92 50.62 50.54 50.12 49.44 47.64 47.27 46.90 45.91 44.59 43.40 42.31 40.18 38.81 37.50 37.17 37.28 37.13
42.62 44.29 45.58 46.45 48.20 49.95 50.73 50.21 49.47 48.01 47.38 47.01 45.47 44.20 43.57 41.77 39.79 37.99 36.30 36.49 36.52 36.96
39.83 41.39 42.98 44.34 45.37 46.58 48.31 49.74 48.91 47.29 45.99 44.84 44.51 45.20 45.12 42.31 39.46 38.76 37.18 35.72 36.52 38.02
38.17 39.06 40.27 42.02 43.17 44.44 46.46 48.04 47.24 46.88 46.04 44.84 44.26 44.81 44.97 43.46 39.70 38.14 37.60 36.73 36.06 36.31
36.58 37.77 38.88 39.75 40.64 42.63 44.88 46.14 46.37 45.41 45.30 44.72 43.53 44.35 44.76 44.20 40.07 38.42 37.91 37.09 36.53 36.55
33.86 33.72 35.33 37.40 38.79 40.40 42.59 43.11 44.24 44.56 43.56 42.60 42.63 43.42 44.34 43.82 39.79 38.07 37.00 36.72 36.14 35.83
31.67 32.31 33.00 35.46 37.72 39.06 40.93 41.39 42.45 42.84 43.35 43.32 42.18 42.94 43.87 43.88 39.00 36.90 35.70 35.40 35.54 37.99
31.32 31.57 32.88 34.94 37.00 37.95 38.39 39.74 40.32 39.96 40.43 41.42 42.04 41.71 43.77 44.52 38.62 36.55 34.57 33.78 34.08 35.76
MSLP
1018.11 1018.38 1018.40 1018.70 1018.75 1018.81 1019.09 1019.15 1019.29 1019.71 1020.00 1020.32 1020.71 1021.07 1021.35 1021.61 1021.97 1022.35 1022.69 1023.15 1023.46 1023.64
1017.24 1017.80 1017.69 1018.00 1018.33 1018.36 1018.51 1018.42 1018.79 1019.04 1019.36 1019.45 1019.77 1020.33 1020.73 1020.98 1021.00 1021.24 1021.63 1022.06 1022.60 1023.02
1017.02 1017.08 1017.13 1017.54 1017.62 1017.68 1017.77 1018.05 1017.95 1018.48 1018.58 1018.72 1019.16 1019.36 1019.97 1020.37 1020.62 1020.83 1020.83 1021.18 1021.87 1022.47
1016.95 1016.78 1016.78 1016.77 1017.00 1017.12 1017.23 1017.32 1017.46 1017.64 1017.92 1018.25 1018.51 1018.66 1019.16 1019.44 1019.88 1020.51 1020.85 1021.36 1021.54 1022.18
1017.30 1016.91 1016.65 1016.59 1016.55 1016.49 1016.65 1016.79 1016.81 1016.87 1017.15 1017.47 1018.03 1018.27 1018.44 1018.91 1019.36 1019.69 1020.04 1020.82 1021.45 1022.00
1017.59 1017.40 1017.09 1016.91 1016.52 1016.20 1016.09 1016.03 1016.05 1016.39 1016.62 1016.81 1016.90 1017.29 1017.72 1018.06 1018.80 1019.29 1019.52 1020.05 1020.76 1021.63
1017.62 1017.26 1016.76 1016.42 1016.16 1015.77 1015.62 1015.60 1015.58 1015.79 1015.87 1016.01 1016.35 1016.67 1016.89 1017.28 1017.78 1018.71 1019.12 1019.80 1020.20 1021.07
1018.03 1017.39 1016.80 1016.21 1015.85 1015.53 1015.32 1015.28 1015.04 1015.06 1015.25 1015.56 1015.73 1016.10 1016.51 1016.99 1016.98 1016.97 1018.48 1018.77 1019.92 1020.09
1018.18 1017.56 1016.79 1016.03 1015.57 1015.47 1015.11 1014.93 1014.75 1014.58 1014.63 1014.86 1015.06 1015.15 1015.44 1015.82 1016.13 1017.09 1017.56 1018.30 1018.68 1019.81
1018.06 1017.43 1016.67 1016.14 1015.62 1014.97 1014.61 1014.42 1014.16 1014.10 1014.21 1014.15 1014.12 1014.21 1014.52 1015.00 1015.63 1016.28 1016.89 1017.89 1018.27 1018.92
1018.23 1017.32 1016.51 1015.88 1015.32 1014.77 1014.18 1013.70 1013.57 1013.45 1013.31 1013.20 1013.19 1013.48 1013.82 1014.57 1015.14 1015.52 1016.04 1016.94 1017.73 1018.49
1019.08 1018.01 1016.95 1015.86 1015.16 1014.42 1013.77 1013.32 1012.82 1012.63 1012.78 1012.86 1012.77 1013.04 1013.16 1013.82 1014.63 1015.25 1015.61 1016.00 1017.03 1017.78
1019.12 1018.08 1016.95 1015.88 1014.74 1013.87 1013.36 1012.61 1012.28 1012.05 1012.00 1011.91 1011.99 1012.16 1012.46 1013.05 1013.82 1014.54 1015.16 1015.87 1016.34 1017.28
1018.83 1017.65 1016.41 1015.19 1014.25 1013.43 1012.72 1011.98 1011.59 1011.38 1011.37 1011.39 1011.38 1011.51 1011.66 1011.98 1012.82 1013.58 1014.09 1015.06 1015.50 1016.45
Wind_Speed
6 5 6 7 6 5 6 7 8 10 9 10 9 10 10 8 9 9 9 11 8 8
6 8 7 7 5 6 7 7 7 9 10 11 11 11 10 8 11 11 12 12 11 8
7 8 9 8 10 10 9 8 6 9 10 10 11 11 11 9 9 11 9 8 11 9
6 6 8 8 9 10 9 10 11 12 10 9 10 10 11 11 10 11 9 7 9 9
5 5 7 8 9 9 12 12 12 9 8 10 11 9 10 10 9 11 11 10 10 11
6 6 6 8 10 11 11 10 9 11 11 12 11 11 11 11 10 10 11 12 12 13
11 8 8 8 8 8 10 10 9 10 10 10 10 11 11 13 13 10 10 11 13 14
12 11 9 8 7 8 8 9 9 9 10 10 9 8 13 13 13 16 14 15 14 14
13 13 11 10 8 8 7 8 9 9 10 10 8 16 22 16 12 13 15 15 15 13
16 15 13 12 11 9 8 8 8 9 10 11 11 18 22 23 12 14 14 15 14 12
17 17 17 14 13 12 9 10 9 9 10 10 9 17 22 24 12 13 15 15 16 15
18 19 19 19 16 13 12 12 11 8 10 11 10 18 21 20 12 12 14 14 16 15
18 18 19 19 18 15 13 15 10 9 10 14 12 17 22 21 9 12 10 12 14 25
19 19 19 18 16 14 15 15 10 10 9 10 12 12 23 27 13 12 12 12 11 11
Wind_Direction
206 225 225 228 219 213 215 219 214 207 207 211 208 210 201 201 206 206 210 209 204 211
222 232 239 230 218 226 229 225 209 206 212 211 205 206 205 214 210 203 205 209 200 201
234 233 234 234 235 237 244 231 214 219 215 213 215 208 205 214 220 210 206 199 198 195
281 259 246 237 241 233 239 238 225 221 217 223 223 211 210 215 206 210 207 194 184 180
305 289 287 269 250 238 230 226 222 217 205 207 215 215 212 214 210 204 189 182 172 167
324 308 276 263 264 268 259 242 218 211 214 218 215 201 205 201 192 198 188 172 168 162
339 328 315 297 273 254 245 241 228 219 221 217 211 205 198 191 184 182 176 172 168 167
326 318 311 308 296 278 260 242 232 226 222 220 207 203 202 198 189 169 173 170 175 173
324 321 313 307 303 294 270 246 235 223 221 212 213 211 204 189 184 188 179 177 176 181
323 317 316 309 298 286 274 263 241 230 221 219 216 210 208 199 187 182 184 183 173 166
318 317 314 311 304 292 273 261 249 239 231 230 224 213 206 203 195 190 186 181 178 173
316 312 310 303 299 295 286 273 252 233 227 224 228 217 210 197 191 194 189 180 177 173
305 301 296 293 292 291 280 269 260 246 232 226 227 215 209 197 186 186 178 178 178 176
302 299 295 291 285 280 284 271 248 241 237 236 224 217 211 202 188 187 177 179 173 177